[[{"header":{"parameterUnit":"m.s-1","parameterCategory":1,"la1":30.2992,"la2":30.254,"lo1":-89.0895,"lo2":-89.0443,"dy":0.0025,"dx":0.0025,"nx":19,"ny":19,"refTime":"2026-03-31T09:00:00:Z","depth":0,"parameterNumber":2,"parameterNumberName":"U-component_of_WINDS"},"data":[0,0,0,-3.2982,-3.2984,-3.3069,-3.3069,-3.319,-3.3191,0,0,0,0,0,0,0,0,0,0,0,-3.2963,-3.2964,-3.2982,-3.2985,-3.3069,-3.3069,-3.319,-3.3191,0,0,0,0,0,0,0,0,0,0,0,-3.2963,-3.2964,-3.2965,-3.2985,-3.3069,-3.3069,-3.3189,-3.3121,0,0,0,0,0,0,0,0,0,0,-3.3037,-3.3025,-3.2964,-3.2965,-3.2985,-3.3069,-3.3069,-3.3118,-3.3126,-3.3156,0,-3.3184,0,-3.3189,-3.32,-3.32,0,0,0,-3.2981,-3.3019,-3.3036,-3.2965,-3.2986,-3.3069,-3.303,-3.3122,-3.3131,-3.3167,-3.3185,-3.3189,-3.3191,-3.3201,-3.3201,-3.3388,-3.3389,0,0,-3.2976,-3.2982,-3.303,-3.3042,-3.3028,-3.3027,-3.3032,-3.3127,-3.3149,-3.3186,-3.3192,-3.3193,-3.3201,-3.3202,-3.3387,-3.3388,0,0,0,-3.2965,-3.2979,-3.2994,-3.3037,-3.3052,-3.303,-3.3036,-3.3144,-3.3149,-3.3193,-3.3195,-3.3202,-3.3204,-3.3385,-3.3387,-3.3444,0,0,0,-3.2962,-3.2973,-3.2992,-3.2997,-3.305,-3.3099,-3.3051,-3.3142,-3.3153,-3.3194,-3.3202,-3.3205,-3.3384,-3.3386,-3.344,-3.347,0,0,0,-3.2956,-3.2972,-3.2986,-3.2997,-3.3033,-3.3097,-3.3107,-3.3144,-3.3154,-3.32,-3.3205,-3.3383,-3.3386,-3.3436,-3.3464,-3.352,0,0,0,-3.2951,-3.3036,-3.2987,-3.3083,-3.3033,-3.3132,-3.3106,-3.318,-3.3227,-3.3203,-3.3384,-3.3387,-3.3435,-3.346,-3.3516,-3.3568,-3.359,0,0,-3.3062,-3.305,-3.3106,-3.3064,-3.3173,-3.3118,-3.3237,-3.3274,-3.3274,-3.335,-3.3355,-3.3441,-3.3464,-3.3519,-3.3714,-3.3732,0,0,0,-3.3143,-3.3184,-3.3211,-3.3255,-3.3286,-3.3314,-3.3333,-3.3348,-3.3411,-3.3314,-3.3477,-3.349,-3.3523,-3.3547,-3.3562,-3.3589,-3.3399,-3.3398,-3.3398,-3.3309,-3.3303,-3.3395,-3.34,-3.3444,-3.3462,-3.3497,-3.352,-3.3502,-3.3541,-3.3563,-3.3682,-3.371,-3.3721,-3.375,-3.3591,-3.3591,-3.3591,-3.3591,-3.347,-3.3526,-3.35,-3.358,-3.3574,-3.3642,-3.3665,-3.365,-3.3713,-3.3665,-3.3693,-3.3639,-3.3741,-3.3766,-3.3596,-3.3595,-3.3594,-3.3594,-3.3594,-3.3577,-3.3602,-3.3618,-3.3681,-3.3731,-3.3734,-3.3796,-3.3789,-3.3783,-3.3811,-3.3833,-3.3832,-3.383,-3.3822,-3.3823,-3.3823,-3.3824,-3.3824,-3.3824,-3.3681,-3.3696,-3.3748,-3.3788,-3.3815,-3.3851,-3.3872,-3.3899,-3.3928,-3.3919,-3.3919,-3.3897,-3.3752,-3.3715,-3.383,-3.3829,-3.3828,-3.3828,-3.3827,-3.3845,-3.3806,-3.3886,-3.3914,-3.396,-3.4011,-3.4001,-3.4058,-3.408,-3.4111,-3.4084,-3.3978,-3.3966,-3.3954,-3.3923,-3.4085,-3.4085,-3.4085,-3.4085,-3.3934,-3.3927,-3.4007,-3.4051,-3.4095,-3.4094,-3.4186,-3.4204,-3.4217,-3.423,-3.4206,-3.4166,-3.4154,-3.4148,-3.4132,-3.4103,-3.4307,-3.4308,-3.4308,-3.4034,-3.4031,-3.4109,-3.4119,-3.4156,-3.4187,-3.4273,-3.4327,-3.4334,-3.4317,-3.4241,-3.4231,-3.4166,-3.4145,-3.4124,-3.4099,-3.4046,0,0]},{"header":{"parameterUnit":"m.s-1","parameterCategory":1,"la1":30.2992,"la2":30.254,"lo1":-89.0895,"lo2":-89.0443,"dy":0.0025,"dx":0.0025,"nx":19,"ny":19,"refTime":"2026-03-31T09:00:00:Z","depth":0,"parameterNumber":3,"parameterNumberName":"V-component_of_WINDS"},"data":[0,0,0,2.3401,2.3401,2.339,2.339,2.3393,2.3393,0,0,0,0,0,0,0,0,0,0,0,2.3415,2.3416,2.3401,2.3401,2.339,2.339,2.3393,2.3393,0,0,0,0,0,0,0,0,0,0,0,2.3415,2.3415,2.3416,2.3401,2.339,2.339,2.3393,2.3395,0,0,0,0,0,0,0,0,0,0,2.3403,2.3426,2.3415,2.3416,2.3401,2.339,2.339,2.3395,2.3395,2.3406,0,2.3418,0,2.3406,2.3394,2.3394,0,0,0,2.3393,2.3426,2.3414,2.3416,2.3401,2.339,2.3393,2.3395,2.3395,2.3406,2.3417,2.3417,2.3406,2.3394,2.3395,2.3483,2.3484,0,0,2.3394,2.3419,2.3414,2.3414,2.3417,2.3393,2.3393,2.3395,2.3409,2.3417,2.3417,2.3406,2.3395,2.3395,2.3483,2.3484,0,0,0,2.3401,2.3419,2.3406,2.3415,2.3411,2.3393,2.3392,2.3409,2.3403,2.3417,2.3406,2.3395,2.3395,2.3482,2.3483,2.3547,0,0,0,2.3401,2.3423,2.3407,2.3422,2.3412,2.341,2.3407,2.3402,2.3402,2.3406,2.3395,2.3395,2.3481,2.3482,2.3544,2.3574,0,0,0,2.3412,2.3425,2.3427,2.3423,2.3419,2.3409,2.3403,2.3402,2.3396,2.3394,2.3395,2.348,2.3482,2.354,2.3568,2.3606,0,0,0,2.3431,2.3482,2.3428,2.3481,2.342,2.3449,2.3403,2.3423,2.3429,2.3395,2.3481,2.3483,2.3539,2.3565,2.3603,2.3644,2.3663,0,0,2.3509,2.3493,2.3522,2.3473,2.3518,2.3449,2.3503,2.3485,2.3462,2.3478,2.3479,2.3545,2.3568,2.3606,2.3757,2.3772,0,0,0,2.3555,2.3577,2.3583,2.3591,2.358,2.3573,2.3544,2.3538,2.355,2.3475,2.3567,2.358,2.3601,2.362,2.3633,2.365,2.3492,2.3492,2.3492,2.3701,2.367,2.3718,2.3686,2.3694,2.3665,2.367,2.3657,2.3621,2.3644,2.3649,2.3744,2.3767,2.3776,2.3795,2.3666,2.3666,2.3666,2.3667,2.3815,2.3842,2.3795,2.3825,2.3792,2.3816,2.3791,2.3766,2.3784,2.3737,2.3754,2.3707,2.3794,2.3809,2.3671,2.367,2.367,2.3669,2.3669,2.3909,2.3917,2.3909,2.3919,2.393,2.3896,2.3917,2.3885,2.3855,2.3872,2.3875,2.3874,2.3871,2.3875,2.3876,2.3876,2.3876,2.3877,2.3877,2.4011,2.4,2.4021,2.4015,2.4017,2.4016,2.3989,2.399,2.3984,2.3959,2.3959,2.3924,2.3808,2.3781,2.3882,2.3881,2.388,2.388,2.388,2.4141,2.4107,2.414,2.4143,2.4134,2.4148,2.4108,2.4114,2.411,2.4122,2.4083,2.4002,2.3982,2.3972,2.3949,2.4088,2.4088,2.4088,2.4088,2.4222,2.4209,2.4237,2.4244,2.4246,2.4214,2.4254,2.4234,2.4208,2.4204,2.4179,2.4146,2.4137,2.4123,2.4109,2.4088,2.4258,2.4259,2.4259,2.4301,2.4287,2.4328,2.4302,2.4293,2.4286,2.4324,2.4334,2.4297,2.4265,2.4201,2.4194,2.414,2.4124,2.4092,2.4071,2.4031,0,0]}]]